Location: Central Coast
(33.3208°S, 151.2336°E)
Time: 12:41:35
(UTC+11:00)

ISS - Visible Passes

Search period start: 16 December 2017 00:00
Search period end: 26 December 2017 00:00
Orbit: 402 x 406 km, 51.6° (Epoch: 16 December)

Date Brightness Start Highest point End Pass type
(mag) Time Alt. Az. Time Alt. Az. Time Alt. Az.
19 Dec-0.722:00:00SE22:00:00SE21:51:00NWvisible
19 Dec -0.5 23:32:15 13° SW 23:32:55 13° SSW 23:34:35 10° S visible
20 Dec -0.5 04:24:54 10° S 04:26:50 14° SSE 04:28:45 10° ESE visible
20 Dec -3.0 21:01:01 10° NNW 21:03:56 29° NE 21:06:52 10° ESE visible
20 Dec -1.2 22:37:46 10° W 22:40:25 22° SW 22:43:04 10° SSE visible
21 Dec -3.1 05:08:01 10° SW 05:11:19 61° SE 05:14:35 10° NE visible
21 Dec -2.4 21:44:52 10° WNW 21:48:00 40° SW 21:51:10 10° SSE visible
22 Dec -1.6 04:15:58 10° SSW 04:18:57 29° SE 04:21:54 10° E visible
22 Dec -3.8 20:52:22 10° NW 20:55:40 88° SW 20:58:59 10° SE visible
22 Dec -0.1 22:31:30 10° SW 22:32:35 11° SSW 22:33:39 10° S visible
23 Dec -0.7 03:24:11 10° S 03:26:29 17° SSE 03:28:46 10° ESE visible
23 Dec -3.5 04:59:56 10° WSW 05:03:06 42° NW 05:06:14 10° NNE visible
23 Dec -0.7 21:37:38 10° W 21:40:01 18° SSW 21:42:23 10° SSE visible
24 Dec -0.1 02:33:05 10° SSE 02:33:54 11° SSE 02:34:42 10° SE visible
24 Dec -3.8 04:07:30 10° SW 04:10:51 81° SE 04:14:07 10° NE visible
24 Dec -1.7 20:44:32 10° WNW 20:47:31 31° SW 20:50:33 10° SSE visible
25 Dec -2.3 03:15:20 10° SSW 03:18:28 37° SE 03:21:34 10° ENE visible
25 Dec -2.1 04:52:41 10° W 04:54:41 15° NW 04:56:40 10° NNW visible
